TimeAKST,TemperatureF,Dew PointF,Humidity,Sea Level PressureIn,VisibilityMPH,Wind Direction,Wind SpeedMPH,Gust SpeedMPH,PrecipitationIn,Events,Conditions,WindDirDegrees,DateUTC
12:16 AM,42.8,30.2,61,28.80,10.0,SE,23.0,32.2,N/A,,Mostly Cloudy,130,2012-12-15 09:16:00
12:36 AM,42.8,30.2,61,28.81,10.0,SE,19.6,31.1,N/A,,Overcast,130,2012-12-15 09:36:00
12:56 AM,42.8,30.2,61,28.81,10.0,SE,20.7,29.9,N/A,,Overcast,130,2012-12-15 09:56:00
1:16 AM,42.8,30.2,61,28.81,10.0,SE,19.6,28.8,N/A,,Overcast,130,2012-12-15 10:16:00
1:36 AM,42.8,30.2,61,28.80,10.0,SE,18.4,25.3,N/A,,Overcast,130,2012-12-15 10:36:00
1:56 AM,42.8,30.2,61,28.80,10.0,SE,15.0,18.4,N/A,,Overcast,130,2012-12-15 10:56:00
2:16 AM,42.8,30.2,61,28.79,10.0,SE,16.1,24.2,N/A,,Overcast,130,2012-12-15 11:16:00
2:36 AM,42.8,30.2,61,28.79,10.0,SE,17.3,25.3,N/A,,Overcast,140,2012-12-15 11:36:00
2:56 AM,42.8,30.2,61,28.79,10.0,SE,18.4,24.2,N/A,,Overcast,140,2012-12-15 11:56:00
3:16 AM,42.8,30.2,61,28.79,10.0,SE,19.6,25.3,N/A,,Overcast,140,2012-12-15 12:16:00
3:36 AM,42.8,30.2,61,28.79,10.0,SE,19.6,28.8,N/A,,Overcast,140,2012-12-15 12:36:00
3:56 AM,42.8,30.2,61,28.80,10.0,SE,19.6,24.2,N/A,,Overcast,140,2012-12-15 12:56:00
4:16 AM,41.0,30.2,65,28.80,10.0,SE,18.4,26.5,N/A,,Overcast,140,2012-12-15 13:16:00
4:36 AM,41.0,32.0,70,28.80,10.0,SE,17.3,23.0,N/A,,Overcast,140,2012-12-15 13:36:00
4:56 AM,41.0,32.0,70,28.81,10.0,SSE,12.7,20.7,N/A,,Overcast,150,2012-12-15 13:56:00
5:16 AM,41.0,32.0,70,28.82,10.0,SE,12.7,-,N/A,,Overcast,140,2012-12-15 14:16:00
5:36 AM,41.0,32.0,70,28.82,10.0,SE,9.2,-,N/A,,Overcast,140,2012-12-15 14:36:00
5:56 AM,41.0,32.0,70,28.83,10.0,SE,11.5,-,N/A,,Overcast,140,2012-12-15 14:56:00
6:16 AM,39.2,32.0,75,28.84,10.0,SSE,9.2,16.1,N/A,,Overcast,150,2012-12-15 15:16:00
6:36 AM,39.2,33.8,81,28.86,10.0,SSE,8.1,-,N/A,,Overcast,160,2012-12-15 15:36:00
6:56 AM,37.4,32.0,81,28.87,10.0,SE,6.9,-,N/A,,Overcast,140,2012-12-15 15:56:00
7:16 AM,37.4,32.0,81,28.87,9.0,ESE,4.6,-,N/A,,Overcast,120,2012-12-15 16:16:00
7:36 AM,37.4,32.0,81,28.88,9.0,ESE,6.9,-,N/A,,Overcast,120,2012-12-15 16:36:00
7:56 AM,37.4,32.0,81,28.89,8.0,ESE,8.1,-,N/A,,Overcast,110,2012-12-15 16:56:00
8:16 AM,37.4,33.8,87,28.89,10.0,East,8.1,-,N/A,,Overcast,100,2012-12-15 17:16:00
8:36 AM,37.4,33.8,87,28.90,10.0,SE,5.8,-,N/A,,Overcast,140,2012-12-15 17:36:00
8:56 AM,37.4,33.8,87,28.91,10.0,SSE,6.9,-,N/A,,Overcast,150,2012-12-15 17:56:00
9:16 AM,37.4,33.8,87,28.92,10.0,SSE,5.8,-,N/A,,Overcast,150,2012-12-15 18:16:00
9:36 AM,37.4,33.8,87,28.93,10.0,ESE,5.8,-,N/A,,Overcast,120,2012-12-15 18:36:00
9:56 AM,37.4,33.8,87,28.94,10.0,SSE,4.6,-,N/A,,Overcast,150,2012-12-15 18:56:00
10:16 AM,37.4,33.8,87,28.95,10.0,Calm,Calm,-,N/A,,Overcast,0,2012-12-15 19:16:00
10:36 AM,37.4,33.8,87,28.95,10.0,SE,5.8,-,N/A,,Overcast,140,2012-12-15 19:36:00
10:56 AM,37.4,33.8,87,28.97,8.0,Calm,Calm,-,N/A,,Overcast,0,2012-12-15 19:56:00
11:16 AM,37.4,32.0,81,28.97,10.0,Calm,Calm,-,N/A,,Overcast,0,2012-12-15 20:16:00
11:36 AM,37.4,32.0,81,28.98,8.0,South,3.5,-,N/A,,Overcast,180,2012-12-15 20:36:00
11:56 AM,37.4,32.0,81,28.98,10.0,SSE,3.5,-,N/A,,Overcast,160,2012-12-15 20:56:00
12:16 PM,35.6,32.0,87,28.99,9.0,ESE,5.8,-,N/A,,Overcast,120,2012-12-15 21:16:00
12:36 PM,37.4,32.0,81,29.00,9.0,South,4.6,-,N/A,,Overcast,180,2012-12-15 21:36:00
12:56 PM,35.6,30.2,81,29.00,10.0,East,6.9,-,N/A,,Overcast,90,2012-12-15 21:56:00
1:16 PM,35.6,32.0,87,29.01,10.0,SE,6.9,-,N/A,,Overcast,140,2012-12-15 22:16:00
1:36 PM,35.6,32.0,87,29.02,9.0,South,3.5,-,N/A,,Overcast,170,2012-12-15 22:36:00
1:56 PM,35.6,30.2,81,29.03,10.0,Calm,Calm,-,N/A,,Overcast,0,2012-12-15 22:56:00
2:16 PM,35.6,30.2,81,29.03,10.0,SSW,6.9,-,N/A,,Overcast,210,2012-12-15 23:16:00
2:36 PM,35.6,30.2,81,29.03,10.0,SE,4.6,-,N/A,,Overcast,130,2012-12-15 23:36:00
2:56 PM,35.6,30.2,81,29.03,10.0,East,5.8,-,N/A,,Overcast,100,2012-12-15 23:56:00
3:16 PM,35.6,30.2,81,29.04,10.0,East,4.6,-,N/A,,Overcast,90,2012-12-16 00:16:00
3:36 PM,35.6,30.2,81,29.05,10.0,East,5.8,-,N/A,,Overcast,100,2012-12-16 00:36:00
3:56 PM,35.6,30.2,81,29.06,5.0,South,5.8,-,N/A,,Overcast,190,2012-12-16 00:56:00
4:16 PM,35.6,30.2,81,29.06,10.0,South,5.8,-,N/A,,Overcast,190,2012-12-16 01:16:00
4:36 PM,35.6,30.2,81,29.07,10.0,SE,4.6,-,N/A,,Overcast,140,2012-12-16 01:36:00
4:56 PM,35.6,30.2,81,29.07,10.0,ESE,5.8,-,N/A,,Overcast,110,2012-12-16 01:56:00
5:16 PM,35.6,30.2,81,29.08,10.0,ESE,6.9,-,N/A,,Overcast,110,2012-12-16 02:16:00
5:36 PM,35.6,30.2,81,29.08,10.0,ESE,4.6,-,N/A,,Overcast,110,2012-12-16 02:36:00
5:56 PM,35.6,30.2,81,29.09,6.0,SE,6.9,-,N/A,,Mostly Cloudy,140,2012-12-16 02:56:00
6:16 PM,33.8,28.4,81,29.10,10.0,SSE,3.5,-,N/A,,Overcast,150,2012-12-16 03:16:00
6:36 PM,35.6,30.2,81,29.09,10.0,ESE,8.1,-,N/A,,Mostly Cloudy,110,2012-12-16 03:36:00
6:56 PM,35.6,30.2,81,29.10,10.0,East,8.1,-,N/A,,Overcast,100,2012-12-16 03:56:00
7:16 PM,35.6,30.2,81,29.10,10.0,SE,10.4,-,N/A,,Mostly Cloudy,130,2012-12-16 04:16:00
7:36 PM,35.6,28.4,75,29.11,10.0,SE,8.1,-,N/A,,Mostly Cloudy,140,2012-12-16 04:36:00
7:56 PM,35.6,28.4,75,29.11,10.0,ESE,9.2,-,N/A,,Overcast,120,2012-12-16 04:56:00
8:16 PM,35.6,30.2,81,29.12,10.0,ESE,10.4,-,N/A,,Overcast,120,2012-12-16 05:16:00
8:36 PM,35.6,28.4,75,29.13,7.0,SE,5.8,-,N/A,,Overcast,140,2012-12-16 05:36:00
9:16 PM,33.8,28.4,81,29.13,3.0,South,4.6,-,N/A,,Mostly Cloudy,170,2012-12-16 06:16:00
9:36 PM,33.8,28.4,81,29.14,10.0,SE,5.8,-,N/A,,Mostly Cloudy,130,2012-12-16 06:36:00
9:56 PM,33.8,28.4,81,29.14,10.0,Calm,Calm,-,N/A,,Mostly Cloudy,0,2012-12-16 06:56:00
10:16 PM,33.8,28.4,81,29.14,10.0,ESE,4.6,-,N/A,,Mostly Cloudy,120,2012-12-16 07:16:00
10:36 PM,33.8,28.4,81,29.15,10.0,SE,11.5,-,N/A,,Overcast,130,2012-12-16 07:36:00
10:56 PM,35.6,28.4,75,29.15,10.0,ESE,10.4,-,N/A,,Overcast,120,2012-12-16 07:56:00
11:16 PM,33.8,28.4,81,29.15,4.0,ESE,9.2,-,N/A,,Overcast,120,2012-12-16 08:16:00
11:36 PM,33.8,28.4,81,29.16,10.0,SE,5.8,-,N/A,,Scattered Clouds,140,2012-12-16 08:36:00
11:56 PM,33.8,28.4,81,29.16,10.0,SE,6.9,-,N/A,,Mostly Cloudy,130,2012-12-16 08:56:00